Year,Month,Day,Hour,Minute,Value (Times are PST for temperature in C)
2012,08,17,00,00,20.40
2012,08,17,00,01,20.40
2012,08,17,00,02,20.40
2012,08,17,00,03,20.40
2012,08,17,00,04,20.40
2012,08,17,00,05,20.30
2012,08,17,00,06,20.30
2012,08,17,00,07,20.30
2012,08,17,00,08,20.30
2012,08,17,00,09,20.30
2012,08,17,00,10,20.30
2012,08,17,00,11,20.20
2012,08,17,00,12,20.20
2012,08,17,00,13,20.20
2012,08,17,00,14,20.20
2012,08,17,00,15,20.20
2012,08,17,00,16,20.20
2012,08,17,00,17,20.20
2012,08,17,00,18,20.20
2012,08,17,00,19,20.10
2012,08,17,00,20,20.10
2012,08,17,00,21,20.10
2012,08,17,00,22,20.10
2012,08,17,00,23,20.10
2012,08,17,00,24,20.10
2012,08,17,00,25,19.90
2012,08,17,00,26,19.90
2012,08,17,00,27,19.90
2012,08,17,00,28,19.90
2012,08,17,00,29,19.90
2012,08,17,00,30,19.90
2012,08,17,00,31,19.90
2012,08,17,00,32,19.90
2012,08,17,00,33,19.90
2012,08,17,00,34,19.80
2012,08,17,00,35,19.80
2012,08,17,00,36,19.80
2012,08,17,00,37,19.80
2012,08,17,00,38,19.70
2012,08,17,00,39,19.70
2012,08,17,00,40,19.70
2012,08,17,00,41,19.70
2012,08,17,00,42,19.70
2012,08,17,00,43,19.60
2012,08,17,00,44,19.60
2012,08,17,00,45,19.60
2012,08,17,00,46,19.60
2012,08,17,00,47,19.60
2012,08,17,00,48,19.60
2012,08,17,00,49,19.60
2012,08,17,00,50,19.60
2012,08,17,00,51,19.60
2012,08,17,00,52,19.60
2012,08,17,00,53,19.50
2012,08,17,00,54,19.50
2012,08,17,00,55,19.50
2012,08,17,00,56,19.50
2012,08,17,00,57,19.50
2012,08,17,00,58,19.50
2012,08,17,00,59,19.50
2012,08,17,01,00,19.50
2012,08,17,01,01,19.50
2012,08,17,01,02,19.50
2012,08,17,01,03,19.50
2012,08,17,01,04,19.50
2012,08,17,01,05,19.50
2012,08,17,01,06,19.40
2012,08,17,01,07,19.40
2012,08,17,01,08,19.40
2012,08,17,01,09,19.40
2012,08,17,01,10,19.40
2012,08,17,01,11,19.40
2012,08,17,01,12,19.30
2012,08,17,01,13,19.30
2012,08,17,01,14,19.30
2012,08,17,01,15,19.30
2012,08,17,01,16,19.30
2012,08,17,01,17,19.30
2012,08,17,01,18,19.20
2012,08,17,01,19,19.20
2012,08,17,01,20,19.20
2012,08,17,01,21,19.20
2012,08,17,01,22,19.20
2012,08,17,01,23,19.20
2012,08,17,01,24,19.20
2012,08,17,01,25,19.10
2012,08,17,01,26,19.10
2012,08,17,01,27,19.10
2012,08,17,01,28,19.10
2012,08,17,01,29,19.10
2012,08,17,01,30,19.10
2012,08,17,01,31,19.10
2012,08,17,01,32,19.10
2012,08,17,01,33,19.10
2012,08,17,01,34,19.10
2012,08,17,01,35,19.10
2012,08,17,01,36,19.10
2012,08,17,01,37,19.10
2012,08,17,01,38,18.90
2012,08,17,01,39,18.90
2012,08,17,01,40,18.90
2012,08,17,01,41,18.90
2012,08,17,01,42,18.90
2012,08,17,01,43,18.90
2012,08,17,01,44,18.90
2012,08,17,01,45,18.90
2012,08,17,01,46,18.80
2012,08,17,01,47,18.80
2012,08,17,01,48,18.80
2012,08,17,01,49,18.80
2012,08,17,01,50,18.80
2012,08,17,01,51,18.70
2012,08,17,01,52,18.70
2012,08,17,01,53,18.70
2012,08,17,01,54,18.70
2012,08,17,01,55,18.70
2012,08,17,01,56,18.70
2012,08,17,01,57,18.70
2012,08,17,01,58,18.60
2012,08,17,01,59,18.60
2012,08,17,02,00,18.60
2012,08,17,02,01,18.60
2012,08,17,02,02,18.60
2012,08,17,02,03,18.60
2012,08,17,02,04,18.60
2012,08,17,02,05,18.50
2012,08,17,02,06,18.50
2012,08,17,02,07,18.50
2012,08,17,02,08,18.50
2012,08,17,02,09,18.50
2012,08,17,02,10,18.50
2012,08,17,02,11,18.50
2012,08,17,02,12,18.40
2012,08,17,02,13,18.40
2012,08,17,02,14,18.40
2012,08,17,02,15,18.40
2012,08,17,02,16,18.40
2012,08,17,02,17,18.30
2012,08,17,02,18,18.30
2012,08,17,02,19,18.20
2012,08,17,02,20,18.20
2012,08,17,02,21,18.20
2012,08,17,02,22,18.20
2012,08,17,02,23,18.20
2012,08,17,02,24,18.20
2012,08,17,02,25,18.20
2012,08,17,02,26,18.10
2012,08,17,02,27,18.10
2012,08,17,02,28,18.10
2012,08,17,02,29,18.10
2012,08,17,02,30,18.10
2012,08,17,02,31,18.10
2012,08,17,02,32,18.10
2012,08,17,02,33,18.10
2012,08,17,02,34,18.10
2012,08,17,02,35,18.10
2012,08,17,02,36,18.10
2012,08,17,02,37,18.00
2012,08,17,02,38,17.90
2012,08,17,02,39,17.90
2012,08,17,02,40,17.90
2012,08,17,02,41,17.90
2012,08,17,02,42,17.90
2012,08,17,02,43,17.90
2012,08,17,02,44,17.90
2012,08,17,02,45,17.90
2012,08,17,02,46,17.80
2012,08,17,02,47,17.80
2012,08,17,02,48,17.80
2012,08,17,02,49,17.80
2012,08,17,02,50,17.80
2012,08,17,02,51,17.80
2012,08,17,02,52,17.70
2012,08,17,02,53,17.70
2012,08,17,02,54,17.70
2012,08,17,02,55,17.70
2012,08,17,02,56,17.70
2012,08,17,02,57,17.70
2012,08,17,02,58,17.70
2012,08,17,02,59,17.70
2012,08,17,03,00,17.70
2012,08,17,03,01,17.70
2012,08,17,03,02,17.70
2012,08,17,03,03,17.70
2012,08,17,03,04,17.70
2012,08,17,03,05,17.70
2012,08,17,03,06,17.60
2012,08,17,03,07,17.60
2012,08,17,03,08,17.60
2012,08,17,03,09,17.60
2012,08,17,03,10,17.50
2012,08,17,03,11,17.50
2012,08,17,03,12,17.50
2012,08,17,03,13,17.50
2012,08,17,03,14,17.50
2012,08,17,03,15,17.50
2012,08,17,03,16,17.50
2012,08,17,03,17,17.50
2012,08,17,03,18,17.50
2012,08,17,03,19,17.50
2012,08,17,03,20,17.50
2012,08,17,03,21,17.50
2012,08,17,03,22,17.50
2012,08,17,03,23,17.40
2012,08,17,03,24,17.40
2012,08,17,03,25,17.30
2012,08,17,03,26,17.30
2012,08,17,03,27,17.30
2012,08,17,03,28,17.20
2012,08,17,03,29,17.20
2012,08,17,03,30,17.10
2012,08,17,03,31,17.10
2012,08,17,03,32,17.10
2012,08,17,03,33,17.10
2012,08,17,03,34,17.10
2012,08,17,03,35,17.10
2012,08,17,03,36,17.00
2012,08,17,03,37,17.00
2012,08,17,03,38,17.00
2012,08,17,03,39,17.00
2012,08,17,03,40,17.00
2012,08,17,03,41,16.90
2012,08,17,03,42,16.90
2012,08,17,03,43,16.90
2012,08,17,03,44,16.90
2012,08,17,03,45,16.90
2012,08,17,03,46,16.80
2012,08,17,03,47,16.80
2012,08,17,03,48,16.80
2012,08,17,03,49,16.70
2012,08,17,03,50,16.70
2012,08,17,03,51,16.70
2012,08,17,03,52,16.60
2012,08,17,03,53,16.60
2012,08,17,03,54,16.50
2012,08,17,03,55,16.40
2012,08,17,03,56,16.30
2012,08,17,03,57,16.30
2012,08,17,03,58,16.20
2012,08,17,03,59,16.20
2012,08,17,04,00,16.10
2012,08,17,04,01,16.10
2012,08,17,04,02,16.10
2012,08,17,04,03,16.10
2012,08,17,04,04,16.10
2012,08,17,04,05,16.10
2012,08,17,04,06,16.10
2012,08,17,04,07,16.10
2012,08,17,04,08,16.10
2012,08,17,04,09,16.10
2012,08,17,04,10,16.10
2012,08,17,04,11,16.10
2012,08,17,04,12,16.10
2012,08,17,04,13,16.10
2012,08,17,04,14,16.10
2012,08,17,04,15,16.10
2012,08,17,04,16,16.10
2012,08,17,04,17,16.10
2012,08,17,04,18,16.20
2012,08,17,04,19,16.20
2012,08,17,04,20,16.20
2012,08,17,04,21,16.30
2012,08,17,04,22,16.30
2012,08,17,04,23,16.30
2012,08,17,04,24,16.30
2012,08,17,04,25,16.30
2012,08,17,04,26,16.30
2012,08,17,04,27,16.30
2012,08,17,04,28,16.40
2012,08,17,04,29,16.40
2012,08,17,04,30,16.40
2012,08,17,04,31,16.40
2012,08,17,04,32,16.40
2012,08,17,04,33,16.50
2012,08,17,04,34,16.60
2012,08,17,04,35,16.60
2012,08,17,04,36,16.60
2012,08,17,04,37,16.60
2012,08,17,04,38,16.60
2012,08,17,04,39,16.60
2012,08,17,04,40,16.60
2012,08,17,04,41,16.60
2012,08,17,04,42,16.60
2012,08,17,04,43,16.60
2012,08,17,04,44,16.60
2012,08,17,04,45,16.60
2012,08,17,04,46,16.50
2012,08,17,04,47,16.40
2012,08,17,04,48,16.40
2012,08,17,04,49,16.40
2012,08,17,04,50,16.40
2012,08,17,04,51,16.40
2012,08,17,04,52,16.40
2012,08,17,04,53,16.30
2012,08,17,04,54,16.30
2012,08,17,04,55,16.30
2012,08,17,04,56,16.30
2012,08,17,04,57,16.30
2012,08,17,04,58,16.30
2012,08,17,04,59,16.20
2012,08,17,05,00,16.20
2012,08,17,05,01,16.20
2012,08,17,05,02,16.20
2012,08,17,05,03,16.20
2012,08,17,05,04,16.10
2012,08,17,05,05,16.10
2012,08,17,05,06,16.10
2012,08,17,05,07,16.10
2012,08,17,05,08,16.10
2012,08,17,05,09,16.10
2012,08,17,05,10,16.10
2012,08,17,05,11,16.10
2012,08,17,05,12,16.10
2012,08,17,05,13,16.10
2012,08,17,05,14,16.10
2012,08,17,05,15,16.10
2012,08,17,05,16,16.10
2012,08,17,05,17,16.10
2012,08,17,05,18,16.10
2012,08,17,05,19,16.10
2012,08,17,05,20,16.10
2012,08,17,05,21,16.10
2012,08,17,05,22,16.10
2012,08,17,05,23,16.00
2012,08,17,05,24,15.90
2012,08,17,05,25,15.90
2012,08,17,05,26,15.90
2012,08,17,05,27,15.90
2012,08,17,05,28,15.80
2012,08,17,05,29,15.80
2012,08,17,05,30,15.80
2012,08,17,05,31,15.80
2012,08,17,05,32,15.80
2012,08,17,05,33,15.80
2012,08,17,05,34,15.80
2012,08,17,05,35,15.80
2012,08,17,05,36,15.80
2012,08,17,05,37,15.80
2012,08,17,05,38,15.80
2012,08,17,05,39,15.80
2012,08,17,05,40,15.80
2012,08,17,05,41,15.80
2012,08,17,05,42,15.80
2012,08,17,05,43,15.80
2012,08,17,05,44,15.80
2012,08,17,05,45,15.80
2012,08,17,05,46,15.80
2012,08,17,05,47,15.80
2012,08,17,05,48,15.80
2012,08,17,06,22,15.10
2012,08,17,06,23,15.10
2012,08,17,06,24,15.10
2012,08,17,06,25,15.10
2012,08,17,06,26,15.10
2012,08,17,06,27,15.10
2012,08,17,06,28,15.10
2012,08,17,06,29,15.10
2012,08,17,06,30,15.10
2012,08,17,06,31,15.10
2012,08,17,06,32,15.10
2012,08,17,06,33,15.10
2012,08,17,06,34,15.10
2012,08,17,06,35,15.10
2012,08,17,06,36,15.20
2012,08,17,06,37,15.20
2012,08,17,06,38,15.20
2012,08,17,06,39,15.30
2012,08,17,06,40,15.30
2012,08,17,06,41,15.30
2012,08,17,06,42,15.30
2012,08,17,06,43,15.40
2012,08,17,06,44,15.40
2012,08,17,06,45,15.40
2012,08,17,06,46,15.40
2012,08,17,06,47,15.40
2012,08,17,06,48,15.40
2012,08,17,06,49,15.40
2012,08,17,06,50,15.40
2012,08,17,06,51,15.40
2012,08,17,06,52,15.40
2012,08,17,06,53,15.40
2012,08,17,06,54,15.40
2012,08,17,06,55,15.40
2012,08,17,06,56,15.40
2012,08,17,06,57,15.50
2012,08,17,06,58,15.50
2012,08,17,06,59,15.50
2012,08,17,07,00,15.50
2012,08,17,07,01,15.50
2012,08,17,07,02,15.50
2012,08,17,07,03,15.60
2012,08,17,07,04,15.60
2012,08,17,07,05,15.60
2012,08,17,07,06,15.60
2012,08,17,07,07,15.70
2012,08,17,07,08,15.70
2012,08,17,07,09,15.70
2012,08,17,07,10,15.80
2012,08,17,07,11,15.80
2012,08,17,07,12,15.80
2012,08,17,07,13,15.80
2012,08,17,07,14,15.80
2012,08,17,07,15,15.90
2012,08,17,07,16,15.90
2012,08,17,07,17,16.00
2012,08,17,07,18,16.10
2012,08,17,07,19,16.10
2012,08,17,07,20,16.10
2012,08,17,07,21,16.20
2012,08,17,07,22,16.20
2012,08,17,07,23,16.30
2012,08,17,07,24,16.30
2012,08,17,07,25,16.30
2012,08,17,07,26,16.40
2012,08,17,07,27,16.40
2012,08,17,07,28,16.40
2012,08,17,07,29,16.50
2012,08,17,07,30,16.60
2012,08,17,07,31,16.70
2012,08,17,07,32,16.70
2012,08,17,07,33,16.70
2012,08,17,07,34,16.80
2012,08,17,07,35,16.80
2012,08,17,07,36,16.90
2012,08,17,07,37,16.90
2012,08,17,07,38,17.00
2012,08,17,07,39,17.10
2012,08,17,07,40,17.10
2012,08,17,07,41,17.20
2012,08,17,07,42,17.30
2012,08,17,07,43,17.30
2012,08,17,07,44,17.30
2012,08,17,07,45,17.30
2012,08,17,07,46,17.40
2012,08,17,07,47,17.50
2012,08,17,07,48,17.50
2012,08,17,07,49,17.60
2012,08,17,07,50,17.60
2012,08,17,07,51,17.70
2012,08,17,07,52,17.70
2012,08,17,07,53,17.80
2012,08,17,07,54,17.80
2012,08,17,07,55,17.90
2012,08,17,07,56,17.90
2012,08,17,07,57,17.90
2012,08,17,07,58,17.90
2012,08,17,07,59,17.90
2012,08,17,08,00,18.00
2012,08,17,08,01,18.10
2012,08,17,08,02,18.10
2012,08,17,08,03,18.10
2012,08,17,08,04,18.20
2012,08,17,08,05,18.20
2012,08,17,08,06,18.20
2012,08,17,08,07,18.20
2012,08,17,08,08,18.30
2012,08,17,08,09,18.30
2012,08,17,08,10,18.40
2012,08,17,08,11,18.40
2012,08,17,08,12,18.50
2012,08,17,08,13,18.50
2012,08,17,08,14,18.60
2012,08,17,08,15,18.70
2012,08,17,08,16,18.70
2012,08,17,08,17,18.80
2012,08,17,08,18,18.90
2012,08,17,08,19,18.90
2012,08,17,08,20,18.90
2012,08,17,08,21,19.00
2012,08,17,08,22,19.10
2012,08,17,08,23,19.10
2012,08,17,08,24,19.10
2012,08,17,08,25,19.20
2012,08,17,08,26,19.20
2012,08,17,08,27,19.30
2012,08,17,08,28,19.40
2012,08,17,08,29,19.40
2012,08,17,08,30,19.50
2012,08,17,08,31,19.50
2012,08,17,08,32,19.50
2012,08,17,08,33,19.60
2012,08,17,08,34,19.60
2012,08,17,08,35,19.60
2012,08,17,08,36,19.60
2012,08,17,08,37,19.60
2012,08,17,08,38,19.60
2012,08,17,08,39,19.60
2012,08,17,08,40,19.60
2012,08,17,08,41,19.50
2012,08,17,08,42,19.40
2012,08,17,08,43,19.40
2012,08,17,08,44,19.30
2012,08,17,08,45,19.20
2012,08,17,08,46,19.20
2012,08,17,08,47,19.20
2012,08,17,08,48,19.20
2012,08,17,08,49,19.10
2012,08,17,08,50,19.00
2012,08,17,08,51,18.90
2012,08,17,08,52,18.80
2012,08,17,08,53,18.70
2012,08,17,08,54,18.70
2012,08,17,08,55,18.60
2012,08,17,08,56,18.70
2012,08,17,08,57,18.70
2012,08,17,08,58,18.70
2012,08,17,08,59,18.70
2012,08,17,09,00,18.70
2012,08,17,09,01,18.70
2012,08,17,09,02,18.60
2012,08,17,09,03,18.60
2012,08,17,09,04,18.40
2012,08,17,09,05,18.20
2012,08,17,09,06,18.10
2012,08,17,09,07,17.90
2012,08,17,09,08,17.80
2012,08,17,09,09,17.70
2012,08,17,09,10,17.60
2012,08,17,09,11,17.50
2012,08,17,09,12,17.40
2012,08,17,09,13,17.40
2012,08,17,09,14,17.40
2012,08,17,09,15,17.40
2012,08,17,09,16,17.30
2012,08,17,09,17,17.30
2012,08,17,09,18,17.30
2012,08,17,09,19,17.20
2012,08,17,09,20,17.20
2012,08,17,09,21,17.10
2012,08,17,09,22,17.10
2012,08,17,09,23,17.10
2012,08,17,09,24,17.10
2012,08,17,09,25,17.10
2012,08,17,09,26,17.20
2012,08,17,09,27,17.30
2012,08,17,09,28,17.30
2012,08,17,09,29,17.30
2012,08,17,09,30,17.40
2012,08,17,09,31,17.40
2012,08,17,09,32,17.40
2012,08,17,09,33,17.40
2012,08,17,09,34,17.40
2012,08,17,09,35,17.50
2012,08,17,09,36,17.50
2012,08,17,09,37,17.50
2012,08,17,09,38,17.60
2012,08,17,09,39,17.60
2012,08,17,09,40,17.70
2012,08,17,09,41,17.70
2012,08,17,09,42,17.80
2012,08,17,09,43,17.80
2012,08,17,09,44,17.90
2012,08,17,09,45,18.10
2012,08,17,09,46,18.20
2012,08,17,09,47,18.40
2012,08,17,09,48,18.40
2012,08,17,09,49,18.50
2012,08,17,09,50,18.50
2012,08,17,09,51,18.60
2012,08,17,09,52,18.60
2012,08,17,09,53,18.70
2012,08,17,09,54,18.80
2012,08,17,09,55,18.80
2012,08,17,09,56,18.80
2012,08,17,09,57,18.90
2012,08,17,09,58,18.80
2012,08,17,09,59,18.80
2012,08,17,10,00,18.80
2012,08,17,10,01,18.80
2012,08,17,10,02,18.80
2012,08,17,10,03,18.80
2012,08,17,10,04,18.80
2012,08,17,10,05,18.80
2012,08,17,10,06,18.80
2012,08,17,10,07,18.80
2012,08,17,10,08,18.80
2012,08,17,10,09,18.80
2012,08,17,10,10,18.90
2012,08,17,10,11,18.90
2012,08,17,10,12,18.90
2012,08,17,10,13,18.90
2012,08,17,10,14,18.90
2012,08,17,10,15,18.90
2012,08,17,10,16,18.90
2012,08,17,10,17,18.90
2012,08,17,10,18,19.00
2012,08,17,10,19,19.10
2012,08,17,10,20,19.10
2012,08,17,10,21,19.20
2012,08,17,10,22,19.40
2012,08,17,10,23,19.50
2012,08,17,10,24,19.60
2012,08,17,10,25,19.70
2012,08,17,10,26,19.80
2012,08,17,10,27,19.90
2012,08,17,10,28,20.00
2012,08,17,10,29,20.10
2012,08,17,10,30,20.10
2012,08,17,10,31,20.20
2012,08,17,10,32,20.20
2012,08,17,10,33,20.30
2012,08,17,10,34,20.30
2012,08,17,10,35,20.30
2012,08,17,10,36,20.50
2012,08,17,10,37,20.50
2012,08,17,10,38,20.50
2012,08,17,10,39,20.60
2012,08,17,10,40,20.60
2012,08,17,10,41,20.70
2012,08,17,10,42,20.70
2012,08,17,10,43,20.70
2012,08,17,10,44,20.70
2012,08,17,10,45,20.70
2012,08,17,10,46,20.70
2012,08,17,10,47,20.70
2012,08,17,10,48,20.70
2012,08,17,10,49,20.60
2012,08,17,10,50,20.60
2012,08,17,10,51,20.50
2012,08,17,10,52,20.50
2012,08,17,10,53,20.50
2012,08,17,10,54,20.50
2012,08,17,10,55,20.40
2012,08,17,10,56,20.30
2012,08,17,10,57,20.20
2012,08,17,10,58,20.20
2012,08,17,10,59,20.20
2012,08,17,11,00,20.30
2012,08,17,11,01,20.20
2012,08,17,11,02,20.20
2012,08,17,11,03,20.20
2012,08,17,11,04,20.20
2012,08,17,11,05,20.20
2012,08,17,11,06,20.20
2012,08,17,11,07,20.20
2012,08,17,11,08,20.20
2012,08,17,11,09,20.20
2012,08,17,11,10,20.20
2012,08,17,11,11,20.10
2012,08,17,11,12,20.20
2012,08,17,11,13,20.20
2012,08,17,11,14,20.20
2012,08,17,11,15,20.20
2012,08,17,11,16,20.30
2012,08,17,11,17,20.30
2012,08,17,11,18,20.40
2012,08,17,11,19,20.50
2012,08,17,11,20,20.50
2012,08,17,11,21,20.50
2012,08,17,11,22,20.60
2012,08,17,11,23,20.70
2012,08,17,11,24,20.90
2012,08,17,11,25,21.00
2012,08,17,11,26,21.00
2012,08,17,11,27,21.10
2012,08,17,11,28,21.30
2012,08,17,11,29,21.60
2012,08,17,11,30,21.70
2012,08,17,11,31,21.70
2012,08,17,11,32,21.70
2012,08,17,11,33,21.70
2012,08,17,11,34,21.60
2012,08,17,11,35,21.60
2012,08,17,11,36,21.60
2012,08,17,11,37,21.60
2012,08,17,11,38,21.60
2012,08,17,11,39,21.40
2012,08,17,11,40,21.30
2012,08,17,11,41,21.30
2012,08,17,11,42,21.10
2012,08,17,11,43,21.10
2012,08,17,11,44,21.10
2012,08,17,11,45,21.10
2012,08,17,11,46,21.20
2012,08,17,11,47,21.20
2012,08,17,11,48,21.20
2012,08,17,11,49,21.20
2012,08,17,11,50,21.10
2012,08,17,11,51,21.10
2012,08,17,11,52,21.10
2012,08,17,11,53,21.00
2012,08,17,11,54,21.10
2012,08,17,11,55,21.10
2012,08,17,11,56,21.30
2012,08,17,11,57,21.30
2012,08,17,11,58,21.30
2012,08,17,11,59,21.30
2012,08,17,12,00,21.40
2012,08,17,12,01,21.40
2012,08,17,12,02,21.40
2012,08,17,12,03,21.50
2012,08,17,12,04,21.60
2012,08,17,12,05,21.70
2012,08,17,12,06,21.70
2012,08,17,12,07,21.70
2012,08,17,12,08,21.70
2012,08,17,12,09,21.80
2012,08,17,12,10,22.00
2012,08,17,12,11,22.20
2012,08,17,12,12,22.30
2012,08,17,12,13,22.30
2012,08,17,12,14,22.40
2012,08,17,12,15,22.40
2012,08,17,12,16,22.40
2012,08,17,12,17,22.30
2012,08,17,12,18,22.20
2012,08,17,12,19,22.10
2012,08,17,12,20,22.10
2012,08,17,12,21,22.10
2012,08,17,12,22,22.10
2012,08,17,12,23,22.20
2012,08,17,12,24,22.20
2012,08,17,12,25,22.30
2012,08,17,12,26,22.30
2012,08,17,12,27,22.40
2012,08,17,12,28,22.40
2012,08,17,12,29,22.40
2012,08,17,12,30,22.50
2012,08,17,12,31,22.60
2012,08,17,12,32,22.60
2012,08,17,12,33,22.70
2012,08,17,12,34,22.70
2012,08,17,12,35,22.70
2012,08,17,12,36,22.70
2012,08,17,12,37,22.80
2012,08,17,12,38,22.80
2012,08,17,12,39,22.80
2012,08,17,12,40,22.90
2012,08,17,12,41,22.90
2012,08,17,12,42,22.90
2012,08,17,12,43,22.90
2012,08,17,12,44,23.00
2012,08,17,12,45,23.10
2012,08,17,12,46,23.00
2012,08,17,12,47,23.00
2012,08,17,12,48,23.00
2012,08,17,12,49,23.00
2012,08,17,12,50,22.90
2012,08,17,12,51,22.90
2012,08,17,12,52,22.90
2012,08,17,12,53,22.80
2012,08,17,12,54,22.70
2012,08,17,12,55,22.70
2012,08,17,12,56,22.70
2012,08,17,12,57,22.70
2012,08,17,12,58,22.70
2012,08,17,12,59,22.60
2012,08,17,13,00,22.60
2012,08,17,13,01,22.60
2012,08,17,13,02,22.60
2012,08,17,13,03,22.50
2012,08,17,13,04,22.50
2012,08,17,13,05,22.50
2012,08,17,13,06,22.40
2012,08,17,13,07,22.40
2012,08,17,13,08,22.40
2012,08,17,13,09,22.40
2012,08,17,13,10,22.30
2012,08,17,13,11,22.30
2012,08,17,13,12,22.30
2012,08,17,13,13,22.40
2012,08,17,13,14,22.40
2012,08,17,13,15,22.50
2012,08,17,13,16,22.60
2012,08,17,13,17,22.70
2012,08,17,13,18,22.90
2012,08,17,13,19,22.90
2012,08,17,13,20,22.90
2012,08,17,13,21,23.00
2012,08,17,13,22,23.10
2012,08,17,13,23,23.20
2012,08,17,13,24,23.30
2012,08,17,13,25,23.30
2012,08,17,13,26,23.20
2012,08,17,13,27,23.10
2012,08,17,13,28,23.10
2012,08,17,13,29,23.00
2012,08,17,13,30,23.00
2012,08,17,13,31,23.10
2012,08,17,13,32,23.10
2012,08,17,13,33,23.10
2012,08,17,13,34,22.90
2012,08,17,13,35,22.90
2012,08,17,13,36,22.80
2012,08,17,13,37,22.70
2012,08,17,13,38,22.60
2012,08,17,13,39,22.40
2012,08,17,13,40,22.30
2012,08,17,13,41,22.20
2012,08,17,13,42,22.10
2012,08,17,13,43,22.00
2012,08,17,13,44,22.00
2012,08,17,13,45,21.90
2012,08,17,13,46,21.90
2012,08,17,13,47,21.80
2012,08,17,13,48,21.80
2012,08,17,13,49,21.80
2012,08,17,13,50,21.80
2012,08,17,13,51,21.80
2012,08,17,13,52,21.80
2012,08,17,13,53,21.80
2012,08,17,13,54,22.00
2012,08,17,13,55,22.00
2012,08,17,13,56,22.00
2012,08,17,13,57,22.00
2012,08,17,13,58,22.10
2012,08,17,13,59,22.10
2012,08,17,14,00,22.10
2012,08,17,14,01,22.10
2012,08,17,14,02,22.10
2012,08,17,14,03,22.00
2012,08,17,14,04,22.00
2012,08,17,14,05,22.10
2012,08,17,14,06,22.20
2012,08,17,14,07,22.40
2012,08,17,14,08,22.50
2012,08,17,14,09,22.50
2012,08,17,14,10,22.60
2012,08,17,14,11,22.60
2012,08,17,14,12,22.70
2012,08,17,14,13,22.70
2012,08,17,14,14,22.70
2012,08,17,14,15,22.70
2012,08,17,14,16,22.80
2012,08,17,14,17,22.80
2012,08,17,14,18,22.90
2012,08,17,14,19,22.90
2012,08,17,14,20,22.90
2012,08,17,14,21,22.70
2012,08,17,14,22,22.70
2012,08,17,14,23,22.60
2012,08,17,14,24,22.60
2012,08,17,14,25,22.50
2012,08,17,14,26,22.50
2012,08,17,14,27,22.40
2012,08,17,14,28,22.20
2012,08,17,14,29,22.00
2012,08,17,14,30,21.90
2012,08,17,14,31,21.80
2012,08,17,14,32,21.80
2012,08,17,14,33,21.90
2012,08,17,14,34,21.90
2012,08,17,14,35,21.90
2012,08,17,14,36,22.00
2012,08,17,14,37,22.10
2012,08,17,14,38,22.20
2012,08,17,14,39,22.20
2012,08,17,14,40,22.20
2012,08,17,14,41,22.20
2012,08,17,14,42,22.20
2012,08,17,14,43,22.30
2012,08,17,14,44,22.20
2012,08,17,14,45,22.30
2012,08,17,14,46,22.50
2012,08,17,14,47,22.60
2012,08,17,14,48,22.70
2012,08,17,14,49,22.70
2012,08,17,14,50,22.80
2012,08,17,14,51,22.80
2012,08,17,14,52,22.90
2012,08,17,14,53,23.00
2012,08,17,14,54,23.10
2012,08,17,14,55,23.20
2012,08,17,14,56,23.30
2012,08,17,14,57,23.30
2012,08,17,14,58,23.40
2012,08,17,14,59,23.50
2012,08,17,15,00,23.60
2012,08,17,15,01,23.50
2012,08,17,15,02,23.40
2012,08,17,15,03,23.30
2012,08,17,15,04,23.40
2012,08,17,15,05,23.50
2012,08,17,15,06,23.60
2012,08,17,15,07,23.70
2012,08,17,15,08,23.70
2012,08,17,15,09,23.90
2012,08,17,15,10,24.00
2012,08,17,15,11,24.10
2012,08,17,15,12,24.30
2012,08,17,15,13,24.40
2012,08,17,15,14,24.40
2012,08,17,15,15,24.30
2012,08,17,15,16,24.30
2012,08,17,15,17,24.30
2012,08,17,15,18,24.20
2012,08,17,15,19,24.20
2012,08,17,15,20,24.10
2012,08,17,15,21,24.10
2012,08,17,15,22,24.10
2012,08,17,15,23,24.10
2012,08,17,15,24,24.10
2012,08,17,15,25,24.10
2012,08,17,15,26,24.10
2012,08,17,15,27,24.20
2012,08,17,15,28,24.20
2012,08,17,15,29,24.30
2012,08,17,15,30,24.40
2012,08,17,15,31,24.50
2012,08,17,15,32,24.60
2012,08,17,15,33,24.70
2012,08,17,15,34,24.80
2012,08,17,15,35,24.90
2012,08,17,15,36,25.00
2012,08,17,15,37,25.10
2012,08,17,15,38,25.20
2012,08,17,15,39,25.20
2012,08,17,15,40,25.20
2012,08,17,15,41,25.20
2012,08,17,15,42,25.20
2012,08,17,15,43,25.30
2012,08,17,15,44,25.40
2012,08,17,15,45,25.40
2012,08,17,15,46,25.30
2012,08,17,15,47,25.30
2012,08,17,15,48,25.30
2012,08,17,15,49,25.20
2012,08,17,15,50,25.20
2012,08,17,15,51,25.20
2012,08,17,15,52,25.10
2012,08,17,15,53,25.10
2012,08,17,15,54,25.10
2012,08,17,15,55,25.10
2012,08,17,15,56,25.10
2012,08,17,15,57,25.10
2012,08,17,15,58,25.10
2012,08,17,15,59,25.10
2012,08,17,16,00,25.00
2012,08,17,16,01,25.00
2012,08,17,16,02,25.10
2012,08,17,16,03,25.10
2012,08,17,16,04,25.10
2012,08,17,16,05,25.20
2012,08,17,16,06,25.20
2012,08,17,16,07,25.10
2012,08,17,16,08,25.20
2012,08,17,16,09,25.10
2012,08,17,16,10,25.10
2012,08,17,16,11,25.10
2012,08,17,16,12,25.10
2012,08,17,16,13,25.20
2012,08,17,16,14,25.20
2012,08,17,16,15,25.30
2012,08,17,16,16,25.30
2012,08,17,16,17,25.30
2012,08,17,16,18,25.20
2012,08,17,16,19,25.10
2012,08,17,16,20,25.00
2012,08,17,16,21,24.90
2012,08,17,16,22,24.80
2012,08,17,16,23,24.70
2012,08,17,16,24,24.60
2012,08,17,16,25,24.60
2012,08,17,16,26,24.50
2012,08,17,16,27,24.40
2012,08,17,16,28,24.40
2012,08,17,16,29,24.30
2012,08,17,16,30,24.40
2012,08,17,16,31,24.40
2012,08,17,16,32,24.50
2012,08,17,16,33,24.50
2012,08,17,16,34,24.50
2012,08,17,16,35,24.50
2012,08,17,16,36,24.50
2012,08,17,16,37,24.50
2012,08,17,16,38,24.50
2012,08,17,16,39,24.50
2012,08,17,16,40,24.40
2012,08,17,16,41,24.40
2012,08,17,16,42,24.40
2012,08,17,16,43,24.40
2012,08,17,16,44,24.40
2012,08,17,16,45,24.40
2012,08,17,16,46,24.30
2012,08,17,16,47,24.30
2012,08,17,16,48,24.20
2012,08,17,16,49,24.10
2012,08,17,16,50,24.10
2012,08,17,16,51,24.10
2012,08,17,16,52,24.00
2012,08,17,16,53,23.80
2012,08,17,16,54,23.80
2012,08,17,16,55,23.90
2012,08,17,16,56,23.90
2012,08,17,16,57,23.90
2012,08,17,16,58,23.90
2012,08,17,16,59,24.00
2012,08,17,17,00,24.00
2012,08,17,17,01,23.80
2012,08,17,17,02,23.60
2012,08,17,17,03,23.50
2012,08,17,17,04,23.40
2012,08,17,17,05,23.40
2012,08,17,17,06,23.30
2012,08,17,17,07,23.30
2012,08,17,17,08,23.30
2012,08,17,17,09,23.30
2012,08,17,17,10,23.30
2012,08,17,17,11,23.30
2012,08,17,17,12,23.40
2012,08,17,17,13,23.60
2012,08,17,17,14,23.70
2012,08,17,17,15,23.70
2012,08,17,17,16,23.80
2012,08,17,17,17,23.80
2012,08,17,17,18,23.80
2012,08,17,17,19,23.80
2012,08,17,17,20,23.80
2012,08,17,17,21,23.90
2012,08,17,17,22,23.90
2012,08,17,17,23,23.90
2012,08,17,17,24,24.10
2012,08,17,17,25,24.10
2012,08,17,17,26,24.20
2012,08,17,17,27,24.30
2012,08,17,17,28,24.40
2012,08,17,17,29,24.50
2012,08,17,17,30,24.50
2012,08,17,17,31,24.50
2012,08,17,17,32,24.50
2012,08,17,17,33,24.50
2012,08,17,17,34,24.40
2012,08,17,17,35,24.40
2012,08,17,17,36,24.20
2012,08,17,17,37,24.10
2012,08,17,17,38,23.90
2012,08,17,17,39,23.80
2012,08,17,17,40,23.70
2012,08,17,17,41,23.60
2012,08,17,17,42,23.60
2012,08,17,17,43,23.60
2012,08,17,17,44,23.50
2012,08,17,17,45,23.40
2012,08,17,17,46,23.40
2012,08,17,17,47,23.30
2012,08,17,17,48,23.30
2012,08,17,17,49,23.30
2012,08,17,17,50,23.30
2012,08,17,17,51,23.40
2012,08,17,17,52,23.40